User: anonymous   Login
Location: Constantia
(34.0183°S, 18.4411°E)
Time: 16:27:08
(UTC+00:00)
Language:

CZ-4B R/B - Orbit

View from above orbital plane
View from above orbital plane
View from above satellite
View from above satellite

Ground track
Ground track

The orbit data is extracted from the following two-line orbital elements,

1 27432U 02024C   20151.93145068 -.00000022 +00000-0 +12509-4 0  9997
2 27432 099.0874 153.8283 0049721 225.0137 191.5828 14.14093206931175
Epoch (UTC): 30 May 2020 22:21:17
Eccentricity: 0.0049721
inclination: 99.0874°
perigee height: 809 km
apogee height: 881 km
right ascension of ascending node: 153.8283°
argument of perigee: 225.0137°
revolutions per day: 14.14093206
mean anomaly at epoch: 191.5828°
orbit number at epoch: 93117

The dashed part of the orbit path shows where the satellite is in the earth's shadow,  

DLR